Find Starlink 32317

NORAD ID: 60918 Int'l Des: 2024-154 Owner: SPXS Country: US Constellation: starlink operational
LEOCIRCULAR

当前视图

正在加载3D地球...

About Starlink 32317

Starlink 32317 (NORAD 60918) is a starlink constellation satellite (v2 mini) launched Aug 31, 2024 by SPXS of US. It operates in LEO, CIRCULAR orbit with a mass of 730.00 kg.

关于 Starlink 32317

正在加载描述...

即将过境

Passes for default location (London). Set your location on the main map for personalized predictions.

高度历史

Loading altitude history...

两行轨道根数

1 60918U 24154R 26170.27117586 -.00000191 00000-0 56773-5 0 9998
2 60918 53.1596 172.2845 0001164 89.2917 270.8218 15.30188035101882
Epoch: Jun 19, 2026 • Age: 17 hours

当前状态

高度 483.5 km
速度 7.62 km/s
星下点 -26.49°S, 115.98°E
发射日期 Aug 31, 2024
运行时间 1.7 years
类型 internet

技术详情

分类 Payload
质量 730.00 kg
干质量 700.00 kg
总质量 730.00 kg
长度 0.30 m
直径 4.10 m
跨度 29.00 m
形状 Box + pan
制造商 SPXS
平台类型 Starlink V2M
阶段状态 In Orbit
所有者/国家 SPXS/US

Most Searched